Theta_e
311 309 310 310 309 308 308 308 306 305 306 307 307 306 305 300 304 306 306 305 304 304 305 303 303 301 297 298 297 297 298 298 297 300 301 301 302 303 302 303 302 302 302
311 310 310 309 308 308 309 308 308 306 306 306 306 305 302 299 300 303 307 305 303 303 304 303 301 301 299 298 298 298 299 299 299 298 301 300 300 300 302 302 300 300 300
310 310 310 309 309 309 308 308 308 306 305 305 306 304 302 299 300 303 307 306 304 303 303 302 302 302 300 298 299 299 300 301 301 300 300 300 300 300 299 299 299 301 300
310 310 310 310 309 308 309 308 308 308 305 305 306 305 304 302 298 301 304 304 305 304 304 303 303 302 301 299 299 300 300 300 300 300 300 301 300 299 300 300 300 300 300
310 311 311 310 309 309 309 309 308 308 306 306 306 305 305 305 301 299 301 302 304 304 304 305 304 303 301 299 299 300 300 300 300 300 300 300 299 299 299 300 299 300 300
311 311 311 310 310 309 308 309 308 308 308 308 307 306 305 305 305 300 300 300 302 303 303 302 304 303 302 301 302 301 299 300 301 300 300 299 298 300 300 299 299 298 298
311 311 310 309 310 309 308 309 308 310 309 309 308 306 307 307 307 306 302 300 301 302 303 302 303 304 303 302 302 300 300 301 300 301 300 300 299 299 298 297 297 298 298
312 310 310 310 309 308 307 308 308 309 309 308 306 306 306 306 307 306 304 304 302 303 302 303 303 303 303 302 301 301 302 301 300 300 300 299 299 297 296 295 294 295 296
311 311 311 311 308 307 307 307 307 307 308 308 307 307 306 306 306 306 306 306 306 306 304 302 303 303 302 302 301 301 301 300 300 299 298 297 296 295 295 294 294 294 295
311 311 311 307 307 307 306 307 308 308 308 308 308 308 307 307 308 307 307 306 306 306 307 305 302 302 302 303 302 301 301 300 299 298 297 296 295 295 294 294 294 295 295
311 310 306 306 306 306 306 307 308 308 309 309 309 309 310 310 310 309 310 310 308 307 306 304 302 301 303 301 301 302 301 300 299 298 297 296 295 295 294 294 294 295 295
311 307 306 306 306 306 306 308 308 309 309 309 309 310 310 308 306 305 305 305 308 306 302 301 301 302 302 302 302 301 301 299 298 297 296 296 295 294 294 295 295 295 295
307 306 307 307 307 308 308 308 308 309 309 309 309 310 307 306 304 304 303 301 301 300 303 303 303 302 302 300 300 301 299 298 298 297 296 295 295 295 294 295 295 296 297
307 307 307 308 308 309 309 309 309 309 308 308 309 308 305 306 304 303 301 302 304 304 303 302 300 300 299 299 300 300 299 298 297 297 296 295 295 295 294 295 295 296 296
307 308 308 309 309 309 309 309 308 308 308 308 309 308 307 305 303 302 302 304 302 303 301 300 299 299 299 300 300 299 298 298 297 296 295 295 295 295 295 295 296 296 296
308 308 309 309 310 309 309 308 309 309 308 308 308 307 305 303 302 303 304 303 300 300 300 299 299 298 299 299 298 298 298 298 297 296 295 295 295 295 295 296 296 296 297
309 308 309 311 310 308 307 309 310 307 306 306 304 303 303 302 303 304 302 300 300 299 299 298 298 299 299 298 298 297 298 297 296 296 295 295 295 295 295 295 296 297 297
309 310 309 308 307 308 309 308 309 306 305 303 303 304 302 303 301 300 300 300 299 298 298 298 298 298 298 298 298 298 297 297 296 296 296 296 296 295 295 296 297 297 298
309 309 309 309 309 309 307 308 307 305 304 303 302 302 302 302 300 300 299 299 299 298 298 299 298 298 299 298 297 297 297 297 297 297 297 297 297 295 296 296 296 298 298
309 310 309 307 307 306 305 306 305 305 302 303 303 302 301 300 300 299 299 298 298 298 299 299 298 299 299 297 297 297 297 297 297 298 298 299 298 297 297 297 297 298 299
309 309 309 309 307 306 302 303 305 302 302 302 302 300 299 299 299 299 298 298 298 298 299 297 297 299 299 298 298 298 297 298 299 296 297 298 299 299 299 299 299 300 301
309 309 309 309 307 303 302 302 302 301 302 302 300 299 299 299 298 298 298 298 298 299 298 297 297 298 298 298 298 298 299 300 301 298 298 299 299 300 300 300 301 302 302
309 308 308 308 303 301 301 301 301 301 301 300 299 299 298 297 297 297 297 298 299 298 297 296 296 298 299 298 297 298 298 300 301 299 300 301 301 301 301 301 302 302 302
308 307 303 302 301 300 300 300 299 300 300 299 298 298 297 297 297 297 297 298 297 296 295 295 296 297 298 298 298 299 299 302 302 301 301 301 302 302 302 303 302 302 303
306 303 302 301 300 300 299 299 299 299 299 298 298 297 297 297 297 296 296 295 295 294 294 294 295 296 297 298 298 299 299 301 301 302 302 301 302 301 301 301 302 303 302
302 302 301 300 299 299 298 298 297 298 298 298 297 297 296 296 296 296 295 295 294 293 293 293 295 295 296 296 298 299 300 300 300 301 302 299 299 300 298 297 299 301 302
Wind_Speed
13 14 10 6 7 7 5 4 5 6 5 8 8 10 12 11 8 8 13 12 11 12 10 10 10 12 17 19 20 16 13 9 4 18 24 25 22 16 20 15 16 17 19
15 14 11 10 10 7 5 2 4 6 8 4 5 6 9 10 11 8 11 8 9 9 4 6 9 10 11 15 16 15 13 13 11 13 19 23 24 22 18 16 18 17 17
16 17 11 12 11 7 4 2 3 8 8 5 4 5 7 10 10 10 9 6 7 7 6 6 7 6 7 12 15 15 14 14 16 13 20 23 21 21 21 19 20 15 17
18 16 12 10 10 7 3 4 4 3 6 4 3 2 4 8 8 6 4 5 5 9 8 10 9 8 7 9 13 15 16 17 17 19 20 21 19 23 22 24 23 22 23
20 16 12 15 10 9 5 3 3 1 4 4 2 3 2 5 9 7 7 8 9 12 13 13 13 13 9 8 13 15 15 18 18 19 20 19 22 22 22 20 23 22 20
19 15 14 13 7 11 7 5 2 2 4 3 3 3 7 5 8 8 9 11 12 13 14 15 10 15 13 10 19 18 19 18 20 14 18 16 21 22 19 19 22 17 5
20 16 13 12 6 11 7 8 5 3 5 4 5 6 7 9 9 9 9 11 12 13 16 16 17 11 14 13 18 20 20 17 17 17 19 19 19 16 16 19 18 18 15
20 15 13 11 9 11 7 8 5 5 5 7 7 8 11 12 13 13 13 13 14 16 17 17 20 17 12 18 18 23 21 19 16 14 16 21 16 17 17 16 19 20 18
20 17 16 12 9 10 11 6 5 6 8 10 11 12 15 20 18 21 20 20 21 23 22 19 16 15 16 21 22 20 19 20 12 13 20 20 17 21 15 16 15 14 12
18 15 14 12 11 12 7 6 5 7 11 12 15 17 18 21 25 26 26 25 26 28 27 24 16 14 18 21 18 17 15 12 12 19 26 24 20 19 15 13 15 12 11
14 13 15 11 13 7 7 9 8 11 14 16 19 22 24 24 19 16 19 20 27 28 27 26 21 15 16 16 16 15 15 10 13 20 24 20 19 19 17 17 14 15 14
13 16 14 12 10 10 11 11 13 14 17 21 23 24 15 8 7 5 7 8 13 16 16 14 13 12 16 15 20 19 8 9 16 22 19 17 17 18 18 17 16 15 13
19 17 14 12 11 12 15 15 16 17 19 23 22 17 8 4 1 5 8 6 6 8 9 9 11 12 13 17 18 8 6 14 22 19 16 16 19 19 18 19 18 15 16
18 13 16 13 13 13 12 15 18 21 23 24 23 16 8 5 2 6 7 7 8 8 7 9 13 15 17 16 12 3 10 24 19 17 17 19 19 20 21 19 19 20 18
13 10 10 9 11 12 14 17 20 23 26 29 30 18 8 5 2 6 8 9 11 7 9 11 14 16 18 13 11 7 24 23 19 20 19 18 20 20 20 19 18 19 13
13 12 12 13 14 15 17 19 18 19 12 8 9 4 4 4 4 8 9 9 13 11 10 13 15 17 12 10 13 25 21 20 20 20 19 18 18 19 19 20 17 16 14
11 11 13 14 15 12 10 13 16 6 9 13 19 15 8 9 13 10 11 12 12 13 14 15 16 12 14 18 21 21 17 21 20 19 18 19 19 19 20 19 18 16 13
12 12 5 3 5 9 13 14 8 9 17 14 12 9 10 16 15 14 10 10 15 16 14 14 13 17 25 24 21 17 19 21 19 19 19 19 18 18 19 19 19 17 16
10 10 5 6 7 10 13 5 15 18 13 9 9 12 19 17 14 13 14 15 12 13 15 11 17 26 24 19 17 17 18 17 18 20 21 21 22 20 21 20 20 22 20
8 6 7 7 9 8 12 13 15 14 12 14 18 18 16 14 16 15 14 14 15 15 11 13 20 24 22 20 19 18 20 21 20 22 21 21 23 21 20 21 20 19 17
7 6 7 12 6 7 14 15 17 19 19 19 19 16 15 16 14 12 12 13 15 14 11 17 21 21 20 24 22 22 22 21 22 22 21 21 21 21 22 21 21 20 15
6 6 10 12 4 18 15 19 20 22 21 22 19 17 16 15 13 12 13 16 14 11 14 20 22 22 19 20 22 22 22 21 26 26 23 23 23 24 23 23 20 19 17
5 7 7 15 22 19 19 21 22 22 22 21 19 18 16 15 14 15 16 17 11 12 16 20 23 24 21 20 22 21 22 21 25 25 24 25 26 25 23 21 19 18 16
4 5 25 25 24 22 22 22 21 20 21 19 19 17 15 14 13 14 16 15 12 13 16 20 22 23 21 21 24 21 22 19 25 24 22 23 24 21 20 19 19 16 14
11 26 28 26 25 23 23 22 20 19 19 20 19 15 12 11 12 14 15 15 11 14 18 19 19 22 22 22 24 23 22 18 21 22 23 25 23 24 22 22 19 16 16
22 24 25 25 24 22 21 19 17 17 22 21 17 14 13 13 12 13 12 12 12 14 17 17 17 20 22 23 23 23 25 24 22 20 22 26 25 22 22 23 24 16 13
Wind_Direction
157 167 185 198 163 145 167 174 130 95 90 58 70 51 37 30 36 54 64 46 42 49 69 52 50 31 25 14 6 4 6 7 303 333 341 347 347 343 341 340 331 321 315
171 174 195 186 172 184 195 180 176 129 100 67 86 53 44 40 41 55 55 54 48 33 54 33 20 4 6 8 1 2 1 353 336 304 331 338 339 338 338 329 336 327 325
163 176 192 196 196 205 199 198 149 153 106 87 104 71 45 32 39 56 55 44 23 353 342 337 326 323 337 358 1 355 348 346 346 333 326 331 330 338 335 332 331 313 314
170 179 196 202 189 203 219 204 153 152 141 101 134 97 35 25 27 40 37 5 342 343 311 283 282 291 302 341 352 352 340 334 334 332 329 330 324 332 327 326 319 313 311
171 185 209 186 195 187 190 179 182 221 162 129 143 222 280 351 10 6 358 346 328 321 322 324 275 278 276 315 326 334 326 322 331 330 320 318 319 328 328 324 312 311 305
171 185 191 191 200 194 177 196 177 162 171 197 267 285 274 308 338 350 335 327 318 316 317 335 301 267 254 284 328 323 319 311 314 320 321 303 311 319 322 322 312 316 305
174 186 188 201 224 186 195 179 179 200 219 270 286 266 284 292 304 308 317 322 309 316 317 326 326 302 260 289 324 315 316 323 320 309 321 318 312 324 333 335 323 312 293
177 186 194 200 190 196 183 179 193 212 243 266 275 259 274 288 289 291 288 294 305 310 308 314 332 317 284 312 312 322 319 321 334 331 330 331 321 326 323 325 325 321 311
181 190 206 215 196 186 169 194 214 227 253 269 277 278 278 281 282 281 276 281 289 295 301 307 329 324 308 319 297 313 322 334 339 343 341 337 327 332 328 328 331 324 319
185 188 194 180 171 169 194 211 224 243 267 276 287 279 285 287 291 286 285 275 281 289 305 304 316 338 326 327 316 310 313 336 333 343 354 354 342 335 337 328 325 307 312
180 179 166 171 172 210 217 230 249 264 275 283 287 296 299 306 312 316 308 295 280 287 302 323 324 325 326 338 336 325 328 315 328 346 349 346 345 343 339 334 332 320 301
174 175 168 177 185 216 231 249 258 272 284 293 300 307 317 313 340 11 8 349 319 313 331 341 334 330 336 322 330 328 305 317 340 346 334 332 335 334 339 341 335 330 319
164 168 178 190 210 231 237 257 267 277 286 294 302 301 320 284 105 11 7 358 350 359 4 4 357 347 348 347 342 320 308 350 344 332 331 327 329 331 338 342 346 347 340
167 176 193 210 226 241 247 260 273 283 289 293 297 290 290 204 336 9 36 37 25 14 11 29 16 9 358 1 359 309 355 347 338 338 329 332 336 336 335 341 330 336 330
165 181 204 228 240 252 264 271 277 284 288 294 295 297 268 210 331 34 51 39 18 12 27 27 11 7 8 28 31 14 343 351 349 343 336 333 335 338 334 340 335 327 310
178 202 222 248 256 268 282 298 295 306 323 337 29 265 210 320 34 74 74 45 53 50 46 22 8 8 28 15 0 348 350 347 346 348 345 340 331 330 328 338 340 328 320
201 222 243 255 256 279 298 314 299 350 73 64 80 79 71 76 97 79 79 79 66 61 41 24 16 30 10 354 347 346 339 346 348 351 348 345 341 337 333 328 329 327 314
221 223 236 259 288 313 326 336 313 159 109 86 71 61 81 99 89 78 64 64 55 43 28 20 32 10 353 346 348 340 343 349 353 354 351 348 344 334 328 327 326 314 307
208 228 255 284 288 311 350 90 133 130 109 87 95 94 114 96 76 74 78 62 49 31 25 40 16 3 357 352 351 350 353 354 353 351 351 350 349 341 333 329 325 327 324
217 230 246 292 290 344 122 118 134 124 103 105 106 111 115 101 86 76 68 53 40 27 33 31 10 6 12 11 9 5 360 357 354 351 351 348 349 348 341 336 332 320 326
230 259 278 286 313 128 119 116 140 119 117 114 113 106 102 98 90 76 55 43 28 23 57 23 14 14 15 12 6 2 358 358 353 349 345 341 347 344 345 345 344 342 331
240 289 319 331 172 138 123 119 125 126 123 122 115 109 106 90 76 61 45 29 35 62 32 18 14 17 11 6 2 359 357 357 358 350 346 345 346 346 344 342 339 337 342
261 331 344 134 144 133 123 119 118 126 130 126 123 111 90 77 66 47 36 34 64 52 26 14 14 14 11 8 5 3 356 355 351 352 345 342 342 342 341 342 350 344 327
322 326 135 132 132 124 122 118 115 120 128 126 117 106 91 80 63 43 36 56 67 39 19 12 14 13 12 11 9 5 359 356 352 358 1 353 351 353 348 337 337 340 341
139 137 133 133 130 127 124 117 114 116 124 122 116 106 88 78 62 57 58 54 42 18 12 11 12 12 14 12 14 10 9 348 356 6 14 14 7 357 354 343 339 330 340
143 136 134 130 124 124 125 120 112 112 121 121 111 97 83 70 65 51 37 24 15 3 3 8 10 11 13 12 12 10 12 15 10 9 15 15 14 15 9 3 355 346 353